map of BED home
Great Circle Mapper logo
BED - Airport
Location
City:  Bedford, Massachusetts, United States
Name:Laurence G Hanscom Field
ICAO / IATA:KBED / BED
FAA:BED

Details
Type:Airport (Part 139 Class I)
Use:Public/Civil, International (customs landing rights)
Latitude:4228'12"N (42.469944)
Longitude:7117'20"W (-71.288999)
Datum:WGS 1984
Elevation:132 ft (40 m)
Runways:2
Longest:7011 × 150 ft (2137 × 45.5 m), paved

Time
Time Zone:UTC-5 (DST-4)
Local Time:

Weather
METAR:KBED 251756Z 26007KT 10SM CLR 18/04 A2963 RMK AO2 SLP045 T01780044 10178 20067 58029
TAF:KBED 251735Z 2518/2618 27007KT P6SM FEW050
FM252300 23006KT P6SM FEW050 SCT250
FM260200 22007KT P6SM BKN050
FM260500 25008KT P6SM SCT200
FM261200 27012G20KT P6SM BKN080

Related Locations
Nearby:
Farthest:MGV: 11750 mi / 18909 km
Margaret River, WA, AU

Find:

   beyond  
but within

Other Information
Maps:
Delays:
NOTAMs:
Links:
Sources:

  
flag of United States
flag of Massachusetts
  

Airport Diagram

Airport diagram for BED

Airport diagram PDF

Sectional Chart

Flight Planning
at skyvector.com

Satellite Image

Google Maps Satellite View

 

Copyright © 2004-2014 Karl L. Swartz. All rights reserved.
The Great Circle Mapper name and logo are trademarks of the Great Circle Mapper.
All other trademarks mentioned herein belong to their respective owners.
Please see credits for attibutions and further copyright information.

  Follow gcmap on Facebook Follow gcmap on Twitter

hCard Microformat

Geo Microformat